OpenBCM V1.07b12 (Linux)

Packet Radio Mailbox

DB0FHN

[JN59NK Nuernberg]

 Login: GUEST





  
I0OJJ  > KEPS     17.02.25 05:53l 336 Lines 15904 Bytes #999 (0) @ AMSAT
BID : ORB25048.1
Read: GUEST DJ6UX
Subj: 2Line Orbital Elements 25048.AMSAT
Path: DB0FHN<DB0FFL<OE5XBL<OE6XPE<DB0ERF<IZ3LSV<I0OJJ<I0OJJ
Sent: 250217/0345z @:I0OJJ.ITA.EU [Rome] obcm1.08-6-g5b69

>From i0ojj%i0ojj.ita.eu@i0ojj.ampr.org Mon Feb 17 04:45:06 2025
Received: from i0ojj.ampr.org by i0ojj.ampr.org (JNOS2.0p.6) with SMTP
	id AA17022151 ; Mon, 17 Feb 2025 04:45:06 +0100
Message-Id: <ORB25048.1@i0ojj.bbs>
>From: i0ojj@i0ojj.ita.eu
X-JNOS-User-Port: Telnet   (i0ojj @ 44.134.109.10)  -> Sending message

From: I0OJJ @ I0OJJ.ITA.EU (Gustavo)
To:   KEPS @ AMSAT
X-Info: This message was generated automatically


QST de W1STR

AMSAT Orbital Elements for Amateur Satellites in TLE Format
>From Orbital Analysis Office
New England Sci-Tech STEM Education Center
Natick, MA February 17, 2025
To all radio amateurs


These element sets describe the orbits of various satellites 
in use by the amateur radio community. For details see:
www.amsat.org/keplerian-elements-formats/

A daily update of element sets is available at:
www.amsat.org/tle/daily-bulletin.txt
or without bulletin text:
www.amsat.org/tle/dailytle.txt


AO-07
1 07530U 74089B   25047.58414683 -.00000047  00000-0 -12608-5 0  9995
2 07530 101.9941  50.6437 0012083 339.0638 139.3653 12.53686135299665
UO-11
1 14781U 84021B   25047.51081253  .00003805  00000-0  41300-3 0  9996
2 14781  97.7404  16.2621 0007801   3.5250 356.6021 14.88702366184813
AO-27
1 22825U 93061C   25047.62695136  .00000257  00000-0  11558-3 0  9991
2 22825  98.7536 108.5415 0009497  85.3177 274.9090 14.30729828637565
FO-29
1 24278U 96046B   25047.62975834  .00000022  00000-0  61616-4 0  9998
2 24278  98.5869 316.3267 0348903 275.2159  80.9263 13.53237274407495
NOAA-15
1 25338U 98030A   25047.91807497  .00000365  00000-0  16809-3 0  9995
2 25338  98.5482  75.6972 0009652 334.6953  25.3754 14.26884895392331
GO-32
1 25397U 98043D   25047.51939613  .00000229  00000-0  11943-3 0  9999
2 25397  98.9580  24.3574 0001720 137.0053 223.1260 14.24254230382197
ISS
1 25544U 98067A   25047.61107277  .00015602  00000-0  27901-3 0  9995
2 25544  51.6365 184.2280 0004243 324.7592  35.3116 15.50178145496463
NO-44
1 26931U 01043C   25047.40526624  .00000428  00000-0  19164-3 0  9994
2 26931  67.0502  60.4333 0006002 264.4466  95.5952 14.31619715220908
SO-50
1 27607U 02058C   25047.74472801  .00002951  00000-0  39274-3 0  9993
2 27607  64.5540 188.6773 0042814   2.4395 357.6911 14.80960589192723
CO-55
1 27844U 03031E   25047.54801911  .00000719  00000-0  33317-3 0  9996
2 27844  98.6792  57.2739 0010238 150.0180 210.1587 14.23821793122559
CO-57
1 27848U 03031J   25047.30381982  .00000636  00000-0  30063-3 0  9998
2 27848  98.6822  57.1220 0009800 166.7675 193.3762 14.23181843122256
RS-22
1 27939U 03042A   25047.84867483  .00002656  00000-0  43334-3 0  9994
2 27939  98.3142 214.6829 0011731  11.9425  95.1273 14.71770771144240
NOAA-18
1 28654U 05018A   25047.79503881  .00000361  00000-0  21483-3 0  9999
2 28654  98.8509 128.5158 0015171  90.7423 269.5487 14.13516804 17817
CO-58
1 28895U 05043F   25047.64547501  .00003858  00000-0  64831-3 0  9993
2 28895  98.2299 190.7633 0014055 306.7137  53.2776 14.70173640 30347
CO-65
1 32785U 08021C   25047.86601372  .00011177  00000-0  85052-3 0  9997
2 32785  97.7710  18.4412 0009238 230.1688 129.8724 15.02247105912213
AAUSAT2
1 32788U 08021F   25047.48100877  .00112913  00000-0  21147-2 0  9996
2 32788  97.6062  39.2693 0006607  75.4039 284.7943 15.48249464915671
CO-66
1 32791U 08021J   25047.88710142  .00023109  00000-0  12726-2 0  9997
2 32791  97.7198  25.8379 0004540 161.4820 198.6577 15.14020756913494
RS-30
1 32953U 08025A   25047.73094917  .00000037  00000-0  19796-3 0  9990
2 32953  82.5030 297.3845 0018842 293.8065  66.1040 12.43158871759510
NOAA-19
1 33591U 09005A   25047.85387106  .00000336  00000-0  20316-3 0  9998
2 33591  99.0130 111.8610 0013075 325.1883  34.8432 14.13286501826189
SRMSAT
1 37841U 11058D   25047.54337345  .00000610  00000-0  18823-3 0  9992
2 37841  19.9715 118.5461 0011540 261.9140 126.0180 14.11362159689124
ZACUBE-1
1 39417U 13066B   25047.86904944  .00010004  00000-0  90883-3 0  9998
2 39417  97.7670   5.7215 0047699  69.2654 291.3669 14.94573952608064
Delfi-N3xt
1 39428U 13066N   25047.73082971  .00015879  00000-0  17116-2 0  9995
2 39428  97.8377 326.8431 0089971  12.9640 347.3858 14.85533562602482
GOMX-1
1 39430U 13066Q   25047.62582176  .00004085  00000-0  64802-3 0  9990
2 39430  97.6988 273.1680 0133791 193.2357 166.5326 14.66815363598845
LO-74
1 39440U 13066AA  25047.59401253  .00007892  00000-0  83024-3 0  9999
2 39440  97.8393 353.1487 0063718 190.7604 169.2254 14.88170267604625
AO-73
1 39444U 13066AE  25047.42392195  .00015634  00000-0  12597-2 0  9998
2 39444  97.7506   9.3315 0043405  48.4393 312.0538 14.99257301606610
DTUSAT-2
1 40030U 14033W   25047.41889413  .00013887  00000-0  97008-3 0  9998
2 40030  98.0445  14.0741 0012352  84.6747 275.5887 15.05398332579355
EO-80
1 40032U 14033Y   25047.37897908  .00015190  00000-0  10584-2 0  9995
2 40032  98.0327  13.8395 0010068  34.7113 325.4768 15.05492108579329
XW-2C
1 40906U 15049H   25047.62605869  .06460715  25777-5  82494-3 0  9990
2 40906  97.4284  83.7622 0006300 238.5188 121.5494 16.35922890522636
LILACSAT-2
1 40908U 15049K   25047.79489253  .00017275  00000-0  51112-3 0  9990
2 40908  97.5163  65.6585 0009490 192.8425 167.2578 15.34927169520901
IO-86
1 40931U 15052B   25038.81889873  .00001817  00000-0  15548-3 0  9993
2 40931   6.0001 108.1159 0012838 187.7041 172.2889 14.78568669506492
Horyu-4
1 41340U 16012D   25047.42732081  .00032237  00000-0  10829-2 0  9996
2 41340  30.9991 169.0803 0006036 333.8158  26.2180 15.29633345495400
Lapan A3
1 41603U 16040E   25047.82581184  .00006165  00000-0  22437-3 0  9999
2 41603  97.1398  56.9381 0009851 319.6524  40.3985 15.28527856480558
CAS-2T
1 41847U 16066G   25047.47105494  .00003854  00000-0  55661-3 0  9991
2 41847  98.4312 122.9044 0348573 160.4121 201.0854 14.42939630434709
CAS-4B
1 42759U 17034B   25047.78020840  .00047941  00000-0  90183-3 0  9998
2 42759  43.0101 266.3952 0017678 226.7724 133.1660 15.47636419425030
CAS-4A
1 42761U 17034D   25047.80947326  .00054993  00000-0  10142-2 0  9992
2 42761  43.0136 264.1660 0019031 232.7981 127.1141 15.48124628425054
TechnoSat
1 42829U 17042E   25047.72656775  .00006068  00000-0  48735-3 0  9992
2 42829  97.3891 221.8944 0011867 313.5892  46.4346 15.00338382413792
AO-91
1 43017U 17073E   25047.64603446  .00014356  00000-0  77683-3 0  9997
2 43017  97.5485 281.3557 0181253 190.4189 169.3260 15.01675744392245
S-Net D
1 43186U 18014G   25047.45392515  .00009877  00000-0  61410-3 0  9994
2 43186  97.5731 311.5980 0007486 250.3176 109.7246 15.09818636385295
S-Net B
1 43187U 18014H   25047.78936806  .00009291  00000-0  57800-3 0  9996
2 43187  97.5737 311.8954 0008319 243.4095 116.6282 15.09810298385344
S-Net A
1 43188U 18014J   25047.78603849  .00009258  00000-0  57571-3 0  9993
2 43188  97.5743 312.0280 0008158 244.1068 115.9320 15.09829212385347
S-Net C
1 43189U 18014K   25047.46013323  .00009820  00000-0  61061-3 0  9995
2 43189  97.5761 311.7007 0009854 237.5426 122.4851 15.09801194383843
Ten-Koh
1 43677U 18084G   25047.73580207  .00006131  00000-0  50519-3 0  9992
2 43677  98.0847 215.5172 0010466 283.2852  76.7202 14.99410987343326
PO-101
1 43678U 18084H   25047.76242410  .00004697  00000-0  40992-3 0  9996
2 43678  98.0941 219.6984 0007365 308.4825  51.5735 14.97325538343497
QO-100
1 43700U 18090A   25047.81711586  .00000150  00000-0  00000+0 0  9992
2 43700   0.0161 106.8006 0001393 252.8595 107.3278  1.00276069 23056
MinXSS-2
1 43758U 18099A   25047.73904279  .00023036  00000-0  10604-2 0  9990
2 43758  97.5182 113.7388 0013250 189.0363 171.0636 15.20240837339790
AO-95
1 43770U 18099N   25047.56410104  .00015683  00000-0  86984-3 0  9998
2 43770  97.5093 107.0516 0010528 241.1388 118.8788 15.13809383339433
RANGE-A
1 43773U 18099R   25047.62143443  .00009379  00000-0  62503-3 0  9993
2 43773  97.4662  99.3231 0011115 214.6957 145.3547 15.07248185339195
MOVE-II
1 43780U 18099Y   25047.14946463  .00088172  00000-0  20417-2 0  9996
2 43780  97.4828 117.4040 0004322 198.4055 161.7036 15.42112171340154
SNUSat 2
1 43782U 18099AA  25047.14453338  .00013958  00000-0  82081-3 0  9998
2 43782  97.4782 104.2671 0012833 179.7917 180.3321 15.11707959339347
SnugLite
1 43784U 18099AC  25047.68361064  .00015339  00000-0  84464-3 0  9995
2 43784  97.4594 104.1706 0003919 169.4471 190.6844 15.14111459339536
ITASat 1
1 43786U 18099AE  25047.56830605  .00012137  00000-0  73907-3 0  9999
2 43786  97.4742 104.4924 0014254 233.3295 126.6625 15.10458968339381
EAGLET 1
1 43790U 18099AJ  25047.57351463  .00008638  00000-0  57417-3 0  9994
2 43790  97.4935 104.7693 0011952 212.5067 147.5426 15.07360603339031
ESEO
1 43792U 18099AL  25047.50284784  .00003438  00000-0  26778-3 0  9999
2 43792  97.4591  99.4147 0010754 177.3556 182.7728 15.01809789338846
CSIM
1 43793U 18099AM  25047.46021014  .00092943  00000-0  21388-2 0  9990
2 43793  97.5003 119.7051 0007330 175.5488 184.5826 15.42262343340044
JO-97
1 43803U 18099AX  25047.67626829  .00018155  00000-0  92853-3 0  9999
2 43803  97.4838 107.9725 0008397 171.6316 188.5059 15.16668730339635
Suomi 100
1 43804U 18099AY  25047.13410368  .00017352  00000-0  93365-3 0  9997
2 43804  97.4900 107.0043 0013490 177.4028 182.7277 15.14837069339509
ISAT
1 43879U 18111D   25046.99012785  .00029887  00000-0  12613-2 0  9990
2 43879  97.6036 319.3640 0008093 227.4642 132.5912 15.23206061336367
UWE-4
1 43880U 18111E   25047.50801753  .00023017  00000-0  10505-2 0  9998
2 43880  97.5966 319.0483 0011332 241.8455 118.1636 15.20558267336418
Sparrow
1 43881U 18111F   25047.51134460  .00029723  00000-0  12211-2 0  9990
2 43881  97.6159 322.3785 0005421 278.7285  81.3337 15.24132376336522
